DateTime,F1_A11,F1_S11,BsB_S11,BsG_S11,BsR_S11,BbsB_S11,BbsG_S11,BbsR_S11,BaB_A11,BaG_A11,BaR_A11,T_S11,U_S11,P_S11,T1_A11
2016-09-08T00:00:00Z,0000380,20000600,,,,,,,,,,27.3,01.5,0659.6,34.8
2016-09-08T00:01:00Z,0000380,20000600,,,,,,,,,,27.3,01.4,0659.6,34.8
2016-09-08T00:02:00Z,0000380,20000600,,,,,,,,,,27.3,01.3,0659.6,34.8
2016-09-08T00:03:00Z,0000380,60000600,,,,,,,,,,27.3,01.3,0659.6,34.8
2016-09-08T00:04:00Z,0000380,41000600,0000.64,0000.45,0000.47,-000.10,-000.05,0000.32,-000.05,0000.03,0000.19,27.4,01.4,0660.6,34.8
2016-09-08T00:05:00Z,0000380,01000600,0001.13,0000.55,0001.12,-000.13,0000.48,0000.61,0000.09,-000.10,-000.02,27.4,01.4,0660.7,34.8
2016-09-08T00:06:00Z,0000380,01000600,0000.11,0000.14,0001.15,-000.58,0000.46,0000.27,0000.33,0000.16,0000.23,27.4,01.4,0660.7,34.8
2016-09-08T00:07:00Z,0000380,00000600,0000.33,0000.72,0000.84,-000.18,0000.03,0000.21,-000.14,-000.13,-000.38,27.4,01.4,0660.7,34.8
2016-09-08T00:08:00Z,0000380,01000600,0000.58,0000.34,0000.42,0000.05,0000.14,0000.02,0000.02,0000.06,0000.10,27.3,01.5,0660.7,34.8
2016-09-08T00:09:00Z,0000380,01000600,0000.72,0000.31,0000.30,-000.13,-000.21,-000.21,-000.10,0000.11,0000.02,27.4,01.4,0660.7,34.8
2016-09-08T00:10:00Z,0000380,01000600,0001.60,0000.90,0000.85,0000.47,0000.02,0000.02,0000.19,-000.11,-000.06,27.4,01.3,0660.7,34.8
2016-09-08T00:11:00Z,0000380,01000600,0000.53,0000.71,0000.99,0000.34,-000.21,0000.18,-000.04,0000.14,0000.11,27.3,01.3,0660.7,34.8
2016-09-08T00:12:00Z,0000380,01000600,0000.04,0000.54,0000.86,-000.14,0000.43,0000.37,0000.03,0000.02,-000.35,27.3,01.2,0660.7,34.8
2016-09-08T00:13:00Z,0000380,01000600,0001.19,0000.67,0001.13,-000.27,0000.13,0000.08,-000.02,-000.09,0000.64,27.3,01.3,0660.6,34.8
2016-09-08T00:14:00Z,0000380,01000600,0000.47,0000.18,0000.36,-000.32,0000.21,0000.10,0000.06,0000.03,-000.21,27.3,01.2,0660.6,34.8
2016-09-08T00:15:00Z,0000380,01000600,0000.66,0000.57,0000.25,-000.29,0000.13,0000.08,-000.01,0000.02,-000.12,27.3,01.3,0660.6,34.8
2016-09-08T00:16:00Z,0000380,01000600,0000.46,-000.14,0001.21,0000.00,0000.30,0000.24,0000.10,0000.15,-000.05,27.3,01.3,0660.6,34.8
2016-09-08T00:17:00Z,0000380,01000600,0001.19,-000.11,0000.59,-000.26,-000.03,0000.24,-000.10,-000.22,0000.10,27.3,01.2,0660.6,34.8
2016-09-08T00:18:00Z,0000380,01000600,0000.00,0000.73,0001.13,-000.39,-000.02,0000.43,-000.11,-000.01,0000.09,27.3,01.3,0660.6,34.8
2016-09-08T00:19:00Z,0000380,01000600,0001.41,-000.02,0000.71,0000.02,0000.19,0000.06,0000.16,0000.15,0000.00,27.3,01.2,0660.6,34.8
2016-09-08T00:20:00Z,0000380,01000600,0000.51,0000.56,0000.35,-000.10,0000.00,0000.08,-000.10,-000.07,0000.19,27.3,01.3,0660.6,34.8
2016-09-08T00:21:00Z,0000380,01000600,0000.62,0000.79,0001.00,-000.19,-000.03,0000.08,0000.09,0000.02,-000.45,27.3,01.3,0660.6,34.8
2016-09-08T00:22:00Z,0000380,01000600,0001.38,0000.30,0000.83,-000.11,0000.11,0000.02,-000.04,0000.12,0000.24,27.3,01.2,0660.6,34.8
2016-09-08T00:23:00Z,0000380,01000600,0000.22,0000.35,0001.22,0000.22,0000.29,0000.34,0000.05,-000.15,0000.15,27.3,01.3,0660.6,34.8
2016-09-08T00:24:00Z,0000380,01000600,0000.86,0000.37,0000.94,-000.37,-000.06,0000.00,-000.11,0000.14,-000.04,27.3,01.3,0660.6,34.8
2016-09-08T00:25:00Z,0000380,01000600,0001.53,0000.65,0001.04,-000.34,-000.27,0000.37,0000.13,-000.11,-000.19,27.3,01.3,0660.6,34.8
2016-09-08T00:26:00Z,0000380,01000600,0000.38,0000.54,0000.77,-000.06,-000.30,0000.39,0000.07,0000.14,0000.06,27.3,01.3,0660.6,34.8
2016-09-08T00:27:00Z,0000380,01000600,0000.42,0000.33,0000.55,0000.13,0000.02,0000.48,-000.17,-000.02,-000.06,27.3,01.3,0660.6,34.8
2016-09-08T00:28:00Z,0000380,01000600,0000.93,0000.23,0000.61,0000.03,0000.35,0000.18,0000.09,-000.01,0000.05,27.3,01.3,0660.6,34.8
2016-09-08T00:29:00Z,0000380,01000600,0001.14,0000.43,0000.75,-000.34,0000.18,0000.13,-000.12,0000.04,0000.10,27.3,01.3,0660.6,34.8
2016-09-08T00:30:00Z,0000380,01000600,0000.28,0000.35,0000.95,-000.51,-000.21,-000.08,0000.10,-000.06,0000.15,27.3,01.3,0660.6,34.8
2016-09-08T00:31:00Z,0000380,01000600,0000.94,0000.28,0000.43,-000.11,-000.24,0000.37,-000.13,-000.01,-000.19,27.3,01.3,0660.7,34.8
2016-09-08T00:32:00Z,0000380,01000600,0001.17,0000.24,0000.28,0000.00,0000.10,0000.35,0000.15,0000.02,-000.08,27.3,01.3,0660.6,34.8
2016-09-08T00:33:00Z,0000380,01000600,0001.04,0000.35,0001.16,-000.50,0000.34,0000.58,0000.10,0000.16,0000.07,27.2,01.3,0660.6,34.8
2016-09-08T00:34:00Z,0000380,01000600,0000.40,0000.52,0001.09,-000.63,0000.00,0000.29,0000.21,0000.05,0000.27,27.3,01.4,0660.6,34.8
2016-09-08T00:35:00Z,0000380,00000600,0001.15,0000.17,0000.80,0000.34,-000.24,-000.24,-000.11,-000.00,-000.07,27.3,01.3,0660.6,34.8
2016-09-08T00:36:00Z,0000380,01000600,0001.10,0000.43,0000.81,0000.19,0000.08,0000.02,-000.05,-000.07,-000.03,27.2,01.4,0660.6,34.8
2016-09-08T00:37:00Z,0000380,00000600,0000.31,0000.53,0000.59,-000.66,0000.32,-000.02,0000.14,0000.12,0000.21,27.2,01.4,0660.6,34.8
2016-09-08T00:38:00Z,0000380,01000600,0001.07,0000.06,0000.64,0000.16,0000.30,0000.42,-000.11,0000.08,-000.36,27.2,01.3,0660.6,34.8
2016-09-08T00:39:00Z,0000380,01000600,0000.03,0000.19,0000.76,0000.29,0000.19,0000.13,0000.02,-000.11,0000.23,27.2,01.3,0660.6,34.8
2016-09-08T00:40:00Z,0000380,01000600,0000.51,-000.33,0000.94,-000.80,-000.35,0000.34,0000.06,0000.13,-000.13,27.2,01.4,0660.6,34.8
2016-09-08T00:41:00Z,0000380,00000600,-000.14,0000.41,0000.09,-000.67,-000.35,-000.13,-000.03,0000.02,0000.07,27.2,01.4,0660.6,34.8
2016-09-08T00:42:00Z,0000380,01000600,0001.69,0000.74,0000.62,-000.55,-000.19,-000.31,0000.02,0000.02,-000.36,27.2,01.3,0660.6,34.8
2016-09-08T00:43:00Z,0000380,01000600,0000.40,0001.08,0000.72,-000.99,0000.32,0000.22,0000.00,-000.13,0000.24,27.2,01.3,0660.6,34.8
2016-09-08T00:44:00Z,0000380,01000600,0000.51,0000.37,0000.76,-000.80,-000.13,0000.42,-000.05,0000.12,0000.16,27.2,01.3,0660.6,34.8
2016-09-08T00:45:00Z,0000380,01000600,0000.50,0000.23,0000.82,0000.14,0000.43,0000.40,0000.06,-000.15,-000.34,27.2,01.3,0660.6,34.7
2016-09-08T00:46:00Z,0000380,01000600,0001.08,0000.17,0000.47,0000.10,0000.16,-000.18,-000.01,0000.01,0000.41,27.2,01.4,0660.6,34.7
2016-09-08T00:47:00Z,0000380,01000600,0000.38,-000.19,0000.58,-000.08,0000.00,0000.05,0000.09,0000.01,-000.28,27.2,01.4,0660.6,34.7
2016-09-08T00:48:00Z,0000380,01000600,0000.19,0001.17,0000.68,-000.96,0000.16,0000.51,-000.09,0000.10,0000.14,27.2,01.4,0660.6,34.7
2016-09-08T00:49:00Z,0000380,00000600,0001.92,0000.58,0000.70,-000.50,-000.24,0000.06,-000.06,0000.02,0000.12,27.2,01.4,0660.6,34.7
2016-09-08T00:50:00Z,0000380,01000600,0001.28,0000.81,0000.51,0000.10,0000.08,0000.03,0000.08,-000.01,-000.18,27.2,01.3,0660.6,34.7
2016-09-08T00:51:00Z,0000380,01000600,0000.60,-000.69,0000.84,-000.39,-000.10,0000.26,0000.26,0000.07,0000.20,27.2,01.2,0660.5,34.7
2016-09-08T00:52:00Z,0000380,01000600,0000.44,0000.13,0000.54,-000.06,0000.22,0000.47,-000.03,-000.02,-000.20,27.2,01.3,0660.5,34.7
2016-09-08T00:53:00Z,0000380,00000600,0000.38,0000.95,0001.12,0000.14,-000.06,0000.14,-000.04,0000.11,0000.15,27.2,01.3,0660.5,34.7
2016-09-08T00:54:00Z,0000380,01000600,0000.60,0000.55,0000.12,0000.11,0000.10,0000.06,-000.13,-000.13,-000.03,27.2,01.3,0660.5,34.7
2016-09-08T00:55:00Z,0000380,01000600,0000.73,0000.90,0000.41,0000.18,0000.37,0000.10,0000.13,0000.01,0000.21,27.2,01.3,0660.5,34.7
2016-09-08T00:56:00Z,0000380,01000600,0000.65,-000.08,0000.86,-000.37,0000.14,-000.16,-000.10,0000.14,-000.15,27.2,01.3,0660.5,34.7
2016-09-08T00:57:00Z,0000380,40000600,,,,,,,,,,,,0660.7,34.7
2016-09-08T00:58:00Z,0000380,60000600,,,,,,,,,,27.0,01.3,0659.5,34.7
2016-09-08T00:59:00Z,0000380,20000600,,,,,,,,,,27.0,01.3,0659.5,34.7
2016-09-08T01:00:00Z,0000380,20000600,,,,,,,,,,27.0,01.3,0659.5,34.7
2016-09-08T01:01:00Z,0000380,20000600,,,,,,,,,,27.0,01.3,0659.5,34.7
2016-09-08T01:02:00Z,0000380,20000600,,,,,,,,,,27.0,01.3,0659.5,34.7
2016-09-08T01:03:00Z,0000380,60000600,,,,,,,,,,27.1,01.3,0659.5,34.7
2016-09-08T01:04:00Z,0000380,41000600,0000.73,0000.66,0000.52,-000.11,0000.00,0000.19,0000.01,-000.05,0000.08,27.2,01.3,0660.4,34.7
2016-09-08T01:05:00Z,0000380,01000600,-000.35,0000.40,0000.66,0000.82,-000.06,0000.13,0000.12,0000.05,0000.07,27.2,01.3,0660.5,34.7
2016-09-08T01:06:00Z,0000380,01000600,-000.23,0000.74,-000.23,-000.02,0000.00,-000.21,0000.02,0000.01,-000.09,27.2,01.4,0660.5,34.7
2016-09-08T01:07:00Z,0000380,01000600,-000.70,0000.64,0000.12,-000.05,0000.08,-000.05,-000.20,0000.12,0000.03,27.1,01.3,0660.5,34.7
2016-09-08T01:08:00Z,0000380,01000600,0000.00,0000.40,0000.10,0000.08,0000.02,0000.32,0000.09,-000.02,-000.26,27.2,01.3,0660.5,34.7
2016-09-08T01:09:00Z,0000380,01000600,0000.19,0001.01,0000.36,0000.10,0000.13,0000.06,-000.01,-000.10,0000.29,27.2,01.3,0660.5,34.7
2016-09-08T01:10:00Z,0000380,01000600,0000.49,0000.39,0000.50,-000.02,-000.02,0000.14,0000.09,0000.04,-000.09,27.1,01.4,0660.5,34.7
2016-09-08T01:11:00Z,0000380,01000600,-000.14,0000.69,0000.68,0000.02,-000.32,0000.10,0000.15,-000.02,0000.07,27.1,01.4,0660.5,34.7
2016-09-08T01:12:00Z,0000380,01000600,0000.55,0000.97,0000.28,-000.08,0000.34,0000.05,-000.07,0000.12,0000.04,27.2,01.4,0660.5,34.7
2016-09-08T01:13:00Z,0000380,01000600,0000.08,0000.52,0000.80,0000.06,0000.48,0000.02,0000.06,-000.06,0000.04,27.1,01.3,0660.5,34.7
2016-09-08T01:14:00Z,0000380,00000600,0000.58,0000.43,-000.02,-000.24,-000.06,-000.26,-000.03,0000.16,-000.14,27.1,01.4,0660.5,34.7
2016-09-08T01:15:00Z,0000380,01000600,0000.61,0000.57,0000.21,0000.00,-000.05,-000.27,0000.03,-000.05,0000.14,27.1,01.4,0660.5,34.7
2016-09-08T01:16:00Z,0000380,01000600,0000.82,0000.21,0000.54,-000.16,-000.14,0000.11,0000.02,0000.15,-000.19,27.1,01.4,0660.5,34.7
2016-09-08T01:17:00Z,0000380,01000600,0001.58,0000.70,0000.21,0000.69,0000.34,0000.16,-000.07,-000.10,0000.18,27.2,01.4,0660.5,34.7
2016-09-08T01:18:00Z,0000380,01000600,0001.17,0000.58,0000.54,-000.26,0000.40,-000.21,0000.05,-000.08,-000.17,27.1,01.4,0660.5,34.7
2016-09-08T01:19:00Z,0000380,01000600,0000.39,0000.75,0000.41,-000.14,0000.26,-000.21,-000.01,0000.14,0000.34,27.1,01.3,0660.4,34.7
2016-09-08T01:20:00Z,0000380,01000600,-000.28,0000.44,0000.38,0000.19,0000.45,-000.03,0000.10,-000.05,-000.12,27.1,01.3,0660.5,34.7
2016-09-08T01:21:00Z,0000380,01000600,-000.63,0000.43,0000.33,-000.30,0000.46,-000.03,-000.07,0000.01,-000.04,27.1,01.4,0660.5,34.7
2016-09-08T01:22:00Z,0000380,01000600,0000.34,0000.49,0000.31,0000.40,-000.14,0000.11,-000.06,-000.05,-000.04,27.1,01.4,0660.4,34.7
2016-09-08T01:23:00Z,0000380,01000600,0001.17,0000.35,-000.09,0000.27,-000.13,0000.19,0000.16,0000.04,0000.15,27.1,01.3,0660.4,34.7
2016-09-08T01:24:00Z,0000380,01000600,0001.07,-000.18,0000.32,0000.03,0000.21,0000.35,0000.09,-000.00,-000.21,27.1,01.4,0660.4,34.7
2016-09-08T01:25:00Z,0000380,01000600,0001.38,0000.51,0000.57,0000.45,0000.19,0000.11,-000.10,-000.05,0000.07,27.1,01.3,0660.4,34.7
2016-09-08T01:26:00Z,0000380,01000600,0000.18,0000.74,0000.20,0000.02,0000.06,-000.08,0000.10,0000.03,-000.06,27.1,01.3,0660.4,34.7
2016-09-08T01:27:00Z,0000380,01000600,0000.36,0000.54,-000.34,0000.32,0000.13,0000.21,-000.07,0000.04,0000.01,27.1,01.3,0660.4,34.7
2016-09-08T01:28:00Z,0000380,01000600,0000.27,0000.42,0000.12,0000.35,0000.37,0000.10,0000.06,0000.02,0000.22,27.0,01.2,0660.4,34.7
2016-09-08T01:29:00Z,0000380,01000600,-000.43,0000.23,-000.08,-000.10,0000.57,-000.10,0000.01,0000.12,-000.12,27.1,01.3,0660.4,34.7
2016-09-08T01:30:00Z,0000380,01000600,0001.30,0000.45,0000.10,-000.21,0000.29,-000.08,0000.16,-000.01,0000.11,27.1,01.3,0660.4,34.7
2016-09-08T01:31:00Z,0000380,01000600,0001.26,0000.18,0000.32,-000.11,0000.51,-000.03,0000.07,0000.03,-000.24,27.1,01.3,0660.4,34.7
2016-09-08T01:32:00Z,0000380,01000600,0000.11,0000.34,0000.13,-000.58,0000.06,0000.29,-000.02,-000.13,0000.08,27.0,01.3,0660.4,34.7
2016-09-08T01:33:00Z,0000380,01000600,0000.20,0000.26,0000.19,0000.69,0000.35,0000.02,-000.16,0000.00,0000.13,27.1,01.3,0660.3,34.7
2016-09-08T01:34:00Z,0000380,01000600,-000.06,0000.37,0000.34,0000.06,-000.06,0000.24,0000.15,0000.13,-000.08,27.0,01.2,0660.3,34.7
2016-09-08T01:35:00Z,0000380,01000600,-000.11,0000.64,0000.58,0000.14,0000.27,0000.06,-000.07,0000.01,0000.19,27.0,01.2,0660.3,34.7
2016-09-08T01:36:00Z,0000380,01000600,0000.59,0000.50,0000.16,0000.18,0000.00,-000.08,0000.00,-000.01,-000.02,27.0,01.3,0660.3,34.7
2016-09-08T01:37:00Z,0000380,01000600,-000.29,0000.57,0000.69,0000.14,0000.03,0000.06,0000.04,-000.07,0000.04,27.0,01.3,0660.3,34.7
2016-09-08T01:38:00Z,0000380,01000600,0000.58,0000.62,0000.29,-000.18,-000.16,0000.00,-000.02,0000.17,-000.04,27.0,01.2,0660.3,34.7
2016-09-08T01:39:00Z,0000380,01000600,-000.12,0000.25,0000.04,0000.16,0000.42,-000.21,0000.06,-000.08,-000.23,27.0,01.2,0660.3,34.7
2016-09-08T01:40:00Z,0000380,01000600,0000.28,0000.67,0000.25,-000.08,0000.35,0000.13,-000.07,0000.05,0000.26,27.0,01.3,0660.3,34.7
2016-09-08T01:41:00Z,0000380,01000600,-000.55,0000.42,0000.84,0000.05,0000.14,0000.03,-000.06,-000.04,-000.43,27.0,01.3,0660.3,34.7
2016-09-08T01:42:00Z,0000380,01000600,0000.16,-000.42,0000.49,-000.42,0000.10,0000.16,0000.07,0000.14,0000.17,27.0,01.2,0660.3,34.7
2016-09-08T01:43:00Z,0000380,01000600,0000.78,-000.27,-000.09,0000.22,0000.27,0000.00,0000.17,-000.10,0000.30,27.0,01.2,0660.3,34.7
2016-09-08T01:44:00Z,0000380,01000600,-000.63,-000.05,0000.82,0000.24,0000.24,0000.10,-000.17,0000.12,-000.12,27.0,01.2,0660.3,34.7
2016-09-08T01:45:00Z,0000380,01000600,-000.35,-000.18,0000.18,0000.22,0000.14,0000.13,0000.07,-000.02,0000.19,27.0,01.2,0660.3,34.8
2016-09-08T01:46:00Z,0000380,01000600,0000.65,0000.29,0000.25,0000.35,0000.19,-000.10,0000.07,-000.11,-000.27,27.0,01.1,0660.3,34.8
2016-09-08T01:47:00Z,0000380,01000600,0000.28,0001.53,-000.05,-000.05,0000.29,0000.11,0000.14,0000.02,0000.06,27.0,01.1,0660.3,34.8
2016-09-08T01:48:00Z,0000380,01000600,0000.78,0000.31,0000.03,0000.08,-000.05,0000.34,-000.01,0000.17,0000.15,27.0,01.1,0660.3,34.8
2016-09-08T01:49:00Z,0000380,01000600,-000.26,0000.05,-000.12,0000.02,0000.46,0000.21,0000.10,-000.03,-000.02,27.0,01.1,0660.3,34.8
2016-09-08T01:50:00Z,0000380,01000600,-000.35,0000.35,-000.05,-000.14,-000.10,-000.11,-000.07,-000.01,0000.03,27.0,01.1,0660.3,34.8
2016-09-08T01:51:00Z,0000380,01000600,0000.59,0000.32,0000.37,-000.30,0000.24,0000.14,0000.22,0000.08,-000.01,27.0,01.1,0660.3,34.8
2016-09-08T01:52:00Z,0000380,01000600,0000.48,0000.20,0000.64,-000.21,0000.46,0000.40,-000.22,-000.01,0000.17,27.0,01.1,0660.2,34.8
2016-09-08T01:53:00Z,0000380,01000600,-000.59,0000.33,0000.21,-000.48,0000.06,0000.06,0000.17,0000.01,0000.07,27.0,01.1,0660.2,34.8
2016-09-08T01:54:00Z,0000380,01000600,-001.11,0000.42,0000.31,-000.35,0000.51,0000.10,0000.14,0000.11,-000.08,27.0,01.1,0660.3,34.8
2016-09-08T01:55:00Z,0000380,01000600,0000.37,0000.20,0000.58,-000.14,-000.19,0000.00,-000.34,-000.12,0000.02,27.0,01.1,0660.2,34.8
2016-09-08T01:56:00Z,0000380,01000600,0000.94,0001.50,-000.02,-000.32,0000.18,0000.24,0000.17,-000.01,-000.18,27.0,01.1,0660.2,34.8
2016-09-08T01:57:00Z,0000380,40000600,,,,,,,,,,,,0660.1,34.8
2016-09-08T01:58:00Z,0000380,60000600,,,,,,,,,,27.0,01.1,0659.1,34.8
2016-09-08T01:59:00Z,0000380,20000600,,,,,,,,,,27.0,01.1,0659.1,34.8
2016-09-08T02:00:00Z,0000380,20000600,,,,,,,,,,27.0,01.1,0659.1,34.7
2016-09-08T02:01:00Z,0000380,20000600,,,,,,,,,,27.0,01.1,0659.1,34.7
2016-09-08T02:02:00Z,0000380,20000600,,,,,,,,,,27.0,01.1,0659.1,34.7
2016-09-08T02:03:00Z,0000380,60000600,,,,,,,,,,27.0,01.1,0659.1,34.7
2016-09-08T02:04:00Z,0000380,41000600,-000.41,0000.71,0000.42,-000.47,0000.06,0000.27,-000.00,0000.03,0000.44,27.0,01.0,0660.1,34.7
2016-09-08T02:05:00Z,0000380,01000600,0001.90,0000.43,-000.12,0000.13,0000.18,0000.47,0000.22,0000.01,-000.13,27.0,01.0,0660.1,34.7
2016-09-08T02:06:00Z,0000380,01000600,0000.34,0000.78,-000.18,0000.69,0000.05,-000.05,-000.19,0000.09,-000.12,27.0,01.0,0660.2,34.7
2016-09-08T02:07:00Z,0000380,01000600,0000.84,-000.19,-000.36,0000.74,-000.57,-000.34,0000.22,-000.23,0000.10,27.0,01.0,0660.2,34.7
2016-09-08T02:08:00Z,0000380,01000600,0000.41,0000.08,-000.28,-000.03,-000.05,-000.43,-000.09,0000.17,0000.07,27.0,01.0,0660.1,34.7
2016-09-08T02:09:00Z,0000380,01000600,0000.63,0000.28,-000.13,-000.14,-000.30,-000.05,0000.00,0000.05,-000.01,27.0,00.8,0660.1,34.7
2016-09-08T02:10:00Z,0000380,01000600,-000.10,0000.12,-000.15,0000.10,-000.05,-000.05,0000.22,0000.01,0000.09,27.0,00.8,0660.1,34.7
2016-09-08T02:11:00Z,0000380,01000600,0000.46,-000.12,0000.54,0000.40,0000.06,-000.06,-000.16,0000.02,-000.21,27.0,00.8,0660.1,34.7
2016-09-08T02:12:00Z,0000380,01000600,-000.22,0000.09,-000.34,0000.22,0000.10,-000.02,0000.01,0000.08,0000.36,27.0,00.7,0660.1,34.7
2016-09-08T02:13:00Z,0000380,01000600,0000.87,0000.56,0000.05,0000.64,0000.32,0000.05,-000.00,-000.17,-000.43,27.0,00.7,0660.1,34.7
2016-09-08T02:14:00Z,0000380,01000600,0001.08,0000.62,-000.18,0000.43,0000.08,-000.16,0000.19,0000.11,0000.23,27.0,00.7,0660.1,34.7
2016-09-08T02:15:00Z,0000380,01000600,-002.86,-000.90,0000.13,0000.05,0000.18,0000.00,-000.13,0000.08,-000.18,27.0,00.8,0660.1,34.7
2016-09-08T02:16:00Z,0000380,01000600,-000.02,0000.30,0000.08,0000.14,0000.05,-000.11,0000.26,-000.05,0000.38,27.0,00.7,0660.1,34.7
2016-09-08T02:17:00Z,0000380,01000600,0000.88,0000.95,-000.25,0000.18,0000.13,-000.31,-000.12,0000.01,-000.52,27.0,00.9,0660.1,34.7
2016-09-08T02:18:00Z,0000380,01000600,-000.07,0000.36,0000.11,0000.21,-000.11,-000.08,0000.21,-000.02,0000.20,27.0,00.8,0660.1,34.7
2016-09-08T02:19:00Z,0000380,01000600,0000.47,0000.29,-000.01,0000.38,-000.06,-000.34,-000.08,0000.15,0000.07,27.0,00.9,0660.1,34.7
2016-09-08T02:20:00Z,0000380,01000600,0001.13,0000.46,-000.30,0000.21,0000.11,-000.13,-000.16,-000.04,0000.19,27.0,00.8,0660.1,34.7
2016-09-08T02:21:00Z,0000380,01000600,0000.00,0000.60,0000.10,0000.06,0000.24,-000.14,-000.12,0000.08,-000.06,27.0,00.9,0660.1,34.7
2016-09-08T02:22:00Z,0000380,01000600,-000.25,0000.43,-000.17,0000.42,0000.34,-000.58,0000.31,-000.10,0000.24,27.0,00.8,0660.1,34.7
2016-09-08T02:23:00Z,0000380,01000600,0000.29,0000.38,0000.17,0000.19,-000.03,0000.13,0000.09,-000.01,-000.53,27.0,00.8,0660.1,34.7
2016-09-08T02:24:00Z,0000380,01000600,-000.54,0000.37,0000.12,-000.30,0000.13,0000.10,-000.09,0000.10,0000.48,27.0,00.8,0660.0,34.7
2016-09-08T02:25:00Z,0000380,01000600,0000.11,0000.06,0000.01,0000.48,-000.16,-000.11,0000.13,-000.19,-000.32,27.0,00.9,0660.0,34.7
2016-09-08T02:26:00Z,0000380,01000600,0001.00,-000.02,-000.09,-000.11,0000.11,-000.10,-000.14,0000.07,0000.19,27.0,00.9,0660.0,34.7
2016-09-08T02:27:00Z,0000380,01000600,-000.18,0001.21,-000.30,0000.82,-000.42,-000.32,-000.09,-000.04,-000.15,27.0,00.8,0660.0,34.7
2016-09-08T02:28:00Z,0000380,01000600,0000.83,0000.85,0000.26,-000.19,0000.02,-000.06,0000.20,0000.17,0000.12,27.0,00.8,0660.0,34.7
2016-09-08T02:29:00Z,0000380,01000600,0001.61,0000.44,-000.60,0000.24,-000.51,-000.02,-000.07,0000.02,0000.13,27.0,00.9,0660.0,34.7
2016-09-08T02:30:00Z,0000380,01000600,-000.53,0000.44,0000.26,0000.00,-000.03,0000.02,-000.09,-000.08,-000.01,26.9,00.9,0660.0,34.7
2016-09-08T02:31:00Z,0000380,01000600,-001.42,-000.18,-000.21,0000.08,0000.05,-000.06,0000.15,0000.08,-000.37,26.9,00.8,0660.0,34.7
2016-09-08T02:32:00Z,0000380,01000600,-000.35,-000.65,0000.00,0000.50,0000.02,-000.06,0000.06,0000.06,0000.21,26.9,00.9,0660.0,34.7
2016-09-08T02:33:00Z,0000380,01000600,0000.28,0000.36,-000.07,0000.30,0000.38,0000.03,-000.05,-000.02,0000.06,26.9,00.9,0660.0,34.7
2016-09-08T02:34:00Z,0000380,01000600,-000.89,-000.09,0000.04,0000.45,-000.13,-000.21,0000.07,-000.09,0000.14,26.9,00.8,0660.0,34.7
2016-09-08T02:35:00Z,0000380,01000600,-000.25,0000.67,0000.36,-000.19,-000.05,-000.22,-000.02,0000.16,0000.09,26.9,00.8,0659.9,34.7
2016-09-08T02:36:00Z,0000380,01000600,0000.36,0000.26,0000.19,-000.11,0000.22,0000.19,0000.05,0000.03,-000.08,26.9,00.8,0659.9,34.7
2016-09-08T02:37:00Z,0000380,01000600,0000.06,0000.36,-000.06,-000.02,0000.06,0000.14,0000.04,-000.06,0000.08,26.9,00.8,0659.9,34.7
2016-09-08T02:38:00Z,0000380,01000600,-000.35,0000.30,0000.16,-000.27,0000.13,0000.02,0000.05,0000.05,-000.08,26.9,00.8,0659.9,34.7
2016-09-08T02:39:00Z,0000380,01000600,-000.62,0000.33,0000.10,0000.22,-000.19,0000.00,-000.14,0000.02,-000.06,26.9,00.8,0659.9,34.7
2016-09-08T02:40:00Z,0000380,01000600,-000.20,0000.05,0000.30,0000.19,-000.38,0000.05,0000.21,-000.13,0000.14,26.9,00.9,0659.9,34.7
2016-09-08T02:41:00Z,0000380,01000600,0001.35,0000.94,0000.40,0000.64,0000.14,0000.11,0000.12,0000.03,-000.09,26.9,00.8,0659.9,34.7
2016-09-08T02:42:00Z,0000380,01000600,0000.79,-000.18,0000.46,0000.00,0000.06,0000.19,0000.04,0000.06,-000.05,26.8,00.8,0659.9,34.7
2016-09-08T02:43:00Z,0000380,01000600,0000.23,0000.53,0000.22,0000.22,-000.11,-000.02,-000.14,0000.12,0000.13,26.8,00.8,0659.9,34.7
2016-09-08T02:44:00Z,0000380,01000600,-000.31,0000.26,0000.77,0000.24,0000.11,-000.18,0000.24,0000.06,-000.11,26.9,00.8,0659.9,34.7
2016-09-08T02:45:00Z,0000380,01000600,0001.24,0001.59,0000.24,-000.19,0000.10,-000.43,-000.05,-000.14,0000.09,26.8,00.8,0659.9,34.7
2016-09-08T02:46:00Z,0000380,01000600,0000.00,-000.59,-000.18,0000.37,-000.22,0000.08,0000.07,-000.00,-000.06,26.8,00.8,0659.8,34.7
2016-09-08T02:47:00Z,0000380,01000600,0000.58,0000.07,0000.11,0001.04,0000.19,-000.10,-000.29,0000.22,0000.09,26.8,00.7,0659.8,34.7
2016-09-08T02:48:00Z,0000380,01000600,-000.27,0000.34,0000.00,0000.06,0000.19,0000.21,0000.27,-000.10,0000.11,26.8,00.7,0659.8,34.7
2016-09-08T02:49:00Z,0000380,01000600,0000.69,0000.12,0000.09,0000.16,0000.21,0000.03,-000.08,0000.02,-000.18,26.8,00.6,0659.8,34.7
2016-09-08T02:50:00Z,0000380,01000600,-000.18,-000.10,0000.27,0000.51,0000.11,0000.00,0000.21,-000.01,0000.16,26.8,00.7,0659.8,34.7
2016-09-08T02:51:00Z,0000380,01000600,0001.08,0000.65,0000.14,0000.05,-000.45,0000.31,-000.16,-000.04,-000.01,26.8,00.7,0659.8,34.7
2016-09-08T02:52:00Z,0000380,01000600,0000.22,0000.69,0000.06,0000.10,0000.10,0000.08,0000.16,0000.21,-000.20,26.8,00.6,0659.8,34.7
2016-09-08T02:53:00Z,0000380,01000600,0000.66,0000.20,-000.03,0001.46,0000.13,0000.21,0000.08,-000.12,-000.08,26.8,00.7,0659.8,34.7
2016-09-08T02:54:00Z,0000380,01000600,0001.13,0000.10,-000.08,0000.27,-000.38,0000.03,-000.02,-000.06,0000.13,26.8,00.6,0659.8,34.7
2016-09-08T02:55:00Z,0000380,01000600,0000.75,-000.06,0000.21,0000.19,0000.22,0000.24,-000.12,0000.09,-000.05,26.8,00.6,0659.8,34.7
2016-09-08T02:56:00Z,0000380,01000600,0000.42,-000.11,-000.10,0000.21,-000.08,-000.02,0000.13,0000.11,0000.10,26.8,00.6,0659.8,34.7
2016-09-08T02:57:00Z,0000380,41000600,,,,,,,,,,,,0659.6,34.7
2016-09-08T02:58:00Z,0000380,61000600,,,,,,,,,,26.8,00.6,0658.7,34.7
2016-09-08T02:59:00Z,0000380,21000600,,,,,,,,,,26.8,00.6,0658.7,34.7
2016-09-08T03:00:00Z,0000380,21000600,,,,,,,,,,26.8,00.6,0658.7,34.7
2016-09-08T03:01:00Z,0000380,21000600,,,,,,,,,,26.8,00.4,0658.7,34.7
2016-09-08T03:02:00Z,0000380,21000600,,,,,,,,,,26.8,00.4,0658.7,34.7
2016-09-08T03:03:00Z,0000380,61000600,,,,,,,,,,26.8,00.4,0658.7,34.7
2016-09-08T03:04:00Z,0000380,41000600,0001.18,0000.59,-000.27,-000.38,-000.46,0000.27,-000.02,0000.07,-000.26,26.8,00.4,0659.7,34.7
2016-09-08T03:05:00Z,0000380,01000600,0000.78,0000.81,0000.64,0000.24,-000.26,0000.48,0000.07,0000.11,0000.39,26.8,00.4,0659.8,34.7
2016-09-08T03:06:00Z,0000380,01000600,0000.76,-000.25,0000.28,0000.05,-000.13,-000.11,-000.18,-000.05,0000.07,26.8,00.3,0659.8,34.7
2016-09-08T03:07:00Z,0000380,01000600,0000.49,0000.13,0000.25,0000.21,-000.02,0000.26,0000.09,0000.04,-000.40,26.8,00.3,0659.8,34.7
2016-09-08T03:08:00Z,0000380,01000600,-000.03,0000.22,0000.25,0000.69,-000.14,0000.35,0000.25,-000.05,0000.40,26.8,00.3,0659.8,34.7
2016-09-08T03:09:00Z,0000380,01000600,0000.70,-000.19,-000.26,0000.45,-000.05,0000.03,-000.00,0000.09,-000.22,26.8,00.3,0659.8,34.7
2016-09-08T03:10:00Z,0000380,01000600,0000.08,0000.19,0000.00,-000.29,0000.06,0000.29,-000.05,-000.06,0000.17,26.8,00.3,0659.8,34.7
2016-09-08T03:11:00Z,0000380,01000600,0000.47,0000.08,0000.35,-000.13,-000.05,0000.14,0000.20,0000.04,-000.10,26.8,00.3,0659.8,34.7
2016-09-08T03:12:00Z,0000380,01000600,-000.14,0000.25,-000.34,-000.24,-000.22,0000.06,-000.16,0000.05,-000.05,26.8,00.3,0659.8,34.7